Zurück zum Katalog

STARLINK-33588

AktivKommunikationVLEO
NORAD 62781·PAYLOAD·🇺🇸 United States

Gestartet Jan 21, 2025 von Vandenberg Space Force Base

Loading…

Nächste Überflüge (nächste 24 Stunden)

TLE

AktuellSource: CelesTrak SupGP

Epoche: Sep 14, 2026, 14:00 UTC

1 62781C 25015Z   26257.58381944  .00067972  00000+0  20085-2 0  2575
2 62781  53.1578 159.1929 0001241 103.6405 253.0217 15.34351879    15

Verfolge STARLINK-33588 in Echtzeit mit AllMySat

Download on the App Store